SBIRS GEO-3 (USA 273)

Last updated on Sun Oct 27 2019 04:21:40 GMT+0000 (Coordinated Universal Time)

1 41937U 17004A 19299.14185230 .00000109 00000-0 00000+0 0 9999 2 41937 4.2664 312.0273 0002313 253.5668 80.3501 1.00272113 10274

Satellite not in orbit

SBIRS GEO-3 (USA 273)